Location: Home
(42.5358°N, 72.7383°W)
Time: 03:13:45
(UTC-04:00)

Vanguard 1 - Pass Details

Date: 28 May 2022
Orbit: 649 x 3832 km, 34.2° (Epoch: 24 June)

Event Time Altitude Azimuth Distance (km) Brightness Sun altitude
Exits shadow 03:48:57 - 259° (W) 5,544 13.4 -13.6°
Reaches altitude 10° 03:51:00 10° 258° (WSW) 5,124 13.2 -13.4°
Maximum altitude 04:07:30 67° 180° (S) 3,634 12.7 -11.2°
Drops below altitude 10° 04:30:48 10° 105° (ESE) 6,883 14.9 -8.0°
Sets 04:35:57 0° 103° (ESE) 7,776 15.3 -7.3°
